Location: *
(55.5817°S, 142.4781°W)
Time: 06:25:07
(UTC+00:00)

Cosmos 2369 Rocket - Pass Details

Date: 29 April 2025
Orbit: 826 x 853 km, 71.0° (Epoch: 23 May)

Event Time Altitude Azimuth Distance (km) Brightness Sun altitude
Exits shadow 14:05:18 21° 210° (SSW) 1,808 3.7 -23.6°
Maximum altitude 14:05:51 22° 202° (SSW) 1,794 3.8 -23.5°
Drops below altitude 10° 14:10:09 10° 152° (SSE) 2,473 5.1 -22.9°
Sets 14:13:13 0° 136° (SE) 3,407 6.1 -22.5°
